Location: Nitra
(0.0000°N, 18.0833°E)
Time: 22:29:22
(UTC+02:00)

GPS 2-17 Rocket1 - Visible Passes

Search period start: 30 March 2023 00:00
Search period end: 09 April 2023 00:00
Orbit: 566 x 651 km, 20.3° (Epoch: 29 March)

Date Brightness Start Highest point End Pass type
(mag) Time Alt. Az. Time Alt. Az. Time Alt. Az.
30 Mar 4.1 05:23:20 29° NNW 05:24:35 35° NNE 05:28:37 10° E visible
30 Mar 4.0 19:09:50 10° W 19:14:23 46° NNW 19:18:49 10° NE visible
30 Mar 5.5 20:55:05 10° NW 20:57:19 15° NNW 20:57:19 15° NNW visible
31 Mar 3.2 05:35:22 34° NW 05:37:04 62° NNE 05:41:25 10° ESE visible
31 Mar 4.7 19:22:47 10° W 19:26:53 28° NNW 19:30:52 10° NE visible
01 Apr 2.8 05:47:25 29° WNW 05:49:33 74° SSW 05:53:56 10° ESE visible
01 Apr 5.3 19:36:06 10° WNW 19:39:26 19° NNW 19:42:42 10° NNE visible
02 Apr 6.0 04:22:39 12° E 04:22:39 12° E 04:23:02 10° E visible
02 Apr 3.5 05:59:27 20° W 06:02:02 41° SSW 06:06:11 10° SE visible
02 Apr 5.6 19:49:58 10° NW 19:52:03 13° NNW 19:54:08 10° N visible
03 Apr 5.6 04:34:41 16° ESE 04:34:41 16° ESE 04:35:39 10° ESE visible
03 Apr 4.2 06:11:28 12° WSW 06:14:33 25° SSW 06:18:10 10° SE visible
04 Apr 5.2 04:46:39 19° SE 04:46:39 19° SE 04:48:00 10° SE visible
04 Apr 4.8 06:24:24 10° WSW 06:27:07 16° SSW 06:29:51 10° SSE visible
05 Apr 5.0 04:58:36 18° SSE 04:58:36 18° SSE 05:00:04 10° SE visible
06 Apr 5.1 05:10:30 15° S 05:10:30 15° S 05:11:53 10° SSE visible
07 Apr 5.3 05:22:21 12° S 05:22:21 12° S 05:23:14 10° S visible
